Find Kosmos-2439

NORAD ID: 32956 Int'l Des: 2008-025 Owner: KVR Country: RU operational
LEOCIRCULARPOLAR

Live Position

Loading 3D Globe...

About Kosmos-2439

Description loading...

Upcoming Passes

Passes for default location (London). Set your location on the main map for personalized predictions.

Altitude History

Loading altitude history...

Two-Line Element Set

1 32956U 08025D 26110.62460449 .00000088 00000-0 56299-3 0 9995
2 32956 82.5112 33.5728 0022039 80.1856 280.1711 12.43069030812568
Epoch: Apr 20, 2026 • Age: 10 hours

Current Status

Altitude 1486.0 km
Velocity 7.13 km/s
Sub-Earth Point 46.74°N, 178.68°E
Launch Date May 23, 2008
Age 17.9 years
Type other

Technical Details

Classification Payload
Mass 225.00 kg
Dry Mass 225.00 kg
Total Mass 225.00 kg
Length 1.60 m
Diameter 0.80 m
Span 7.00 m
Shape Cyl + Ant
Manufacturer RESH
Bus Type Strela-3
Phase Status In Orbit
Owner/State KVR/RU

Most Searched